Wind_Speed
27 28 26 25 25 26 27 26 28 26 26 27 32 34 34 35 35 36 38 39 41 42 43 44 45 45 45 46 47 47 48 49 49 50 51 53 55 57 59 61 63 65 68 71
29 28 28 27 26 26 27 27 29 29 28 30 33 35 37 38 39 39 40 41 42 44 45 45 45 46 46 47 48 48 49 50 51 52 54 56 58 60 61 63 66 69 72 74
30 30 30 29 26 28 28 29 31 32 31 33 35 36 38 39 41 42 43 43 44 44 45 45 45 46 47 48 49 50 51 52 53 55 56 58 60 62 64 66 69 72 74 76
31 31 33 28 28 28 30 31 32 33 34 36 37 38 39 40 42 43 44 44 44 44 45 45 46 47 48 49 50 51 52 53 55 57 58 60 62 64 67 70 72 75 77 78
33 33 32 30 29 29 31 32 32 34 36 38 38 39 40 41 42 43 43 44 44 45 45 46 47 47 48 49 50 52 53 55 57 58 60 62 65 67 70 73 75 77 79 80
34 35 35 32 31 31 33 34 32 34 37 38 39 41 41 42 43 43 43 44 45 45 46 47 47 48 49 50 51 53 55 56 58 60 63 66 68 70 73 75 77 79 80 82
35 37 36 34 33 33 35 35 36 37 38 39 40 41 42 42 43 43 44 45 45 46 47 48 48 49 49 51 52 54 56 58 60 63 66 68 71 73 75 77 79 80 81 82
35 37 36 33 35 36 37 38 39 39 39 40 40 41 42 43 44 45 45 46 47 47 48 48 49 50 51 53 55 56 58 60 63 66 68 71 73 75 77 79 81 82 83 82
35 36 36 36 37 38 39 40 40 40 41 41 42 42 43 44 45 46 47 47 47 48 48 49 50 51 53 55 56 58 60 63 65 68 70 73 75 78 79 81 83 83 83 82
34 35 36 37 38 40 40 41 41 42 42 43 43 44 44 45 46 46 47 47 47 48 49 50 51 53 55 56 58 61 63 66 68 71 73 75 77 80 81 83 83 83 82 80
34 35 37 37 39 40 41 42 42 42 43 44 44 45 45 46 46 46 46 47 48 49 50 51 52 54 56 59 61 63 66 68 71 73 76 78 79 81 82 83 83 82 80 77
35 36 37 38 39 40 41 42 42 43 44 44 45 45 46 46 46 47 47 48 49 50 51 52 54 56 59 61 64 66 69 71 74 76 78 80 81 82 81 81 79 78 75 71
35 36 38 39 39 39 40 42 43 43 44 45 45 46 46 47 47 48 49 49 50 51 52 54 56 59 61 64 66 69 72 74 77 79 81 82 83 83 81 77 75 72 68 63
36 37 38 39 39 40 41 42 43 43 45 45 46 46 47 47 48 48 49 50 51 52 54 57 59 61 64 67 69 72 75 77 80 82 83 83 83 82 80 77 71 65 60 55
36 38 39 39 39 40 41 42 43 44 45 45 45 46 46 46 47 48 49 51 52 54 57 59 62 64 67 70 73 76 78 81 82 83 83 83 82 80 76 72 66 59 52 47
37 38 39 40 41 42 43 43 43 44 44 44 44 44 45 46 47 49 51 53 55 57 59 62 65 68 71 74 76 79 81 82 83 84 83 82 79 75 70 65 59 53 46 41
37 38 39 40 41 41 41 42 42 42 42 42 43 44 45 47 48 50 52 55 57 60 62 66 68 71 74 77 80 82 83 83 83 83 81 77 73 68 64 58 52 46 40 37
36 37 38 39 39 39 40 40 40 40 41 42 44 45 47 48 50 53 55 57 60 62 66 70 73 76 78 81 83 83 83 82 81 78 75 70 66 61 57 51 45 40 35 34
35 36 37 37 37 37 38 39 40 41 42 44 45 47 49 51 53 56 58 61 64 67 70 74 77 79 81 82 83 82 81 79 75 71 67 63 59 54 49 44 39 36 33 32
34 34 35 36 36 37 38 40 41 42 44 45 47 49 51 54 57 59 62 65 69 73 75 77 80 81 82 82 81 79 76 72 69 64 60 57 52 47 42 38 35 33 31 31
34 35 35 36 37 38 40 41 42 44 46 48 50 52 54 57 61 64 67 69 72 76 79 80 81 81 80 78 76 73 69 66 62 58 54 51 46 41 37 35 32 30 30 30
35 36 37 38 39 40 42 43 45 47 49 51 53 56 59 62 65 68 71 75 77 79 81 81 80 78 77 74 71 66 62 59 56 52 49 45 40 37 34 31 30 29 29 28
37 37 39 40 41 42 44 46 47 49 52 54 57 60 64 67 70 73 75 78 80 81 80 78 76 74 71 67 63 59 56 53 50 47 43 40 37 34 31 29 28 28 27 27
38 39 40 41 43 44 46 48 51 53 56 58 62 65 69 72 74 77 79 80 79 78 76 73 70 67 63 60 57 55 52 49 46 43 40 37 34 32 29 28 27 26 25 25
40 41 42 44 46 47 49 52 54 57 60 63 66 70 73 76 78 78 78 77 76 73 70 66 63 60 58 56 54 51 49 46 43 39 36 34 31 29 27 26 25 24 23 23
42 43 45 47 49 51 53 56 58 61 64 67 70 74 76 77 78 77 75 73 71 67 63 60 57 55 54 52 50 48 45 42 39 36 33 30 28 26 25 24 23 22 21 20
44 46 48 50 53 55 58 60 63 66 69 72 74 75 76 76 75 73 71 68 64 60 57 54 53 51 50 48 46 43 41 38 34 32 29 27 25 23 22 21 21 20 20 18
Wind_Direction
242 249 250 249 250 254 260 265 268 270 273 279 282 286 288 288 288 289 290 291 291 292 292 293 293 293 294 294 295 295 296 296 296 296 297 298 298 299 300 301 302 303 304 305
241 247 251 252 255 260 263 266 270 272 274 277 281 286 289 290 291 291 291 291 292 292 292 292 292 293 293 294 295 295 296 296 296 297 298 299 300 301 302 302 303 304 305 306
245 248 252 255 259 263 266 268 271 274 276 278 281 285 287 289 291 292 292 292 292 292 292 292 293 293 294 294 294 295 296 296 297 298 299 300 301 302 303 303 304 305 306 307
251 254 257 262 263 265 267 270 273 276 278 280 283 285 287 289 290 291 292 292 292 291 292 292 293 293 294 294 294 295 296 296 298 299 300 301 302 303 303 304 306 307 308 309
255 258 262 263 267 269 270 271 274 278 280 282 284 286 288 290 290 291 291 291 291 291 292 292 293 293 294 294 294 295 296 297 299 300 301 302 303 304 305 306 307 308 309 310
258 262 266 269 270 270 272 274 276 277 279 281 283 286 287 288 289 290 291 291 292 292 292 293 293 293 294 294 295 296 297 299 300 301 301 303 304 305 306 307 309 310 311 311
260 264 267 271 275 276 276 279 279 280 281 283 285 287 288 290 291 292 293 293 293 293 294 294 294 294 294 295 296 297 298 299 300 301 303 304 305 306 308 309 310 311 312 312
261 265 272 275 275 276 278 279 281 284 285 286 288 289 290 291 292 293 294 295 294 294 294 294 294 295 295 296 297 298 300 301 302 303 304 306 307 308 309 310 311 312 312 313
261 267 271 274 276 278 279 280 282 285 286 288 289 290 291 292 293 293 294 294 294 294 295 295 295 295 296 297 298 300 301 302 304 305 306 308 309 310 311 311 312 312 313 313
263 267 271 274 276 278 280 282 283 285 286 288 289 290 291 293 294 295 294 294 294 295 295 295 296 296 297 298 300 301 303 304 305 307 308 309 310 311 312 312 312 313 313 313
265 268 271 273 276 279 280 282 284 285 287 289 290 290 291 293 294 295 294 294 294 295 295 296 297 298 299 300 302 303 305 306 307 308 309 310 311 312 312 313 313 313 313 313
266 268 271 273 274 276 279 282 284 286 288 289 290 291 292 293 294 294 294 295 295 296 297 298 299 300 301 302 304 305 306 307 308 309 310 311 311 312 313 313 313 313 313 312
268 270 271 273 275 276 278 281 284 286 288 290 291 292 292 293 294 295 295 296 297 298 299 300 301 302 303 304 305 306 307 308 309 310 311 311 312 312 312 313 313 312 312 311
268 270 272 274 276 278 281 283 286 287 289 290 291 292 293 294 295 295 296 297 298 299 300 301 302 303 304 305 307 308 308 309 310 311 311 311 312 312 313 313 313 312 310 309
267 269 272 275 277 280 283 285 287 289 290 291 292 293 293 294 295 296 297 298 300 301 302 303 304 305 306 307 308 308 309 310 310 311 311 312 312 312 312 312 312 311 310 307
268 270 273 276 279 282 284 286 287 289 291 292 292 293 294 295 296 297 298 300 301 302 303 303 305 306 307 307 308 309 309 310 310 311 312 312 312 312 312 311 311 310 309 307
271 274 276 279 281 283 284 286 288 290 291 292 293 294 295 296 297 299 300 301 302 303 304 304 306 307 307 308 308 309 310 310 311 311 312 312 312 311 311 311 310 309 308 306
275 277 279 280 282 284 286 287 289 290 292 293 294 295 296 298 299 300 301 302 303 304 305 305 306 307 308 308 309 310 310 311 311 312 312 312 312 311 311 310 309 308 306 306
277 279 281 282 284 285 286 288 290 291 293 294 295 297 298 299 300 301 302 303 304 304 305 306 307 307 308 308 309 310 310 311 311 312 312 312 311 311 310 309 308 306 306 306
280 281 282 284 285 287 288 289 291 293 294 296 297 298 299 300 301 302 303 304 305 305 306 307 307 307 308 308 309 310 310 311 311 311 311 311 311 310 309 308 306 305 306 307
281 282 284 286 287 288 289 291 292 294 295 297 298 299 300 301 302 303 304 305 305 306 307 307 307 307 308 308 309 310 310 310 310 311 311 311 311 310 308 307 305 305 306 308
281 283 285 286 287 289 290 291 293 295 296 298 299 300 301 302 303 304 305 306 306 306 307 307 307 308 308 309 309 309 310 310 310 310 310 310 309 309 307 305 304 305 307 308
281 283 285 286 288 289 291 293 294 296 297 299 300 301 303 304 305 306 306 306 306 307 307 308 308 308 308 309 309 309 310 310 310 310 309 308 308 307 306 304 304 305 307 308
282 284 285 287 288 290 292 294 296 297 299 301 302 303 304 305 306 306 307 307 307 307 308 308 308 308 308 309 309 309 309 309 309 308 307 306 306 305 304 304 304 305 306 308
283 285 287 288 290 292 294 296 297 299 301 302 303 305 305 306 307 307 307 307 308 308 308 308 308 308 308 308 308 308 308 307 306 305 304 304 303 303 302 303 303 305 306 308
285 287 289 291 292 294 296 298 299 301 302 303 304 306 306 307 307 307 308 308 308 308 308 308 308 308 308 308 308 307 306 305 304 303 302 302 301 301 300 301 303 305 307 307
287 289 291 293 294 296 298 300 301 302 304 305 306 307 307 307 307 307 308 308 308 308 308 308 309 309 309 308 307 307 306 304 302 300 300 299 299 298 298 300 302 304 306 306
Height
5733 5735 5738 5740 5742 5744 5745 5746 5746 5748 5747 5746 5742 5741 5740 5739 5738 5736 5734 5731 5727 5724 5721 5718 5714 5711 5707 5703 5699 5695 5691 5687 5682 5677 5672 5667 5662 5656 5650 5643 5636 5629 5621 5613
5728 5729 5731 5733 5736 5737 5738 5739 5738 5739 5740 5738 5736 5734 5731 5729 5727 5726 5723 5721 5717 5714 5710 5707 5703 5700 5696 5692 5688 5683 5679 5674 5669 5664 5659 5654 5648 5642 5635 5628 5621 5613 5604 5595
5721 5723 5724 5727 5731 5730 5731 5731 5731 5730 5731 5729 5728 5726 5724 5721 5718 5715 5712 5709 5706 5703 5699 5696 5692 5688 5684 5680 5676 5671 5667 5662 5656 5651 5645 5639 5633 5626 5619 5612 5604 5596 5587 5577
5714 5716 5717 5724 5723 5723 5723 5724 5723 5722 5721 5719 5718 5716 5714 5711 5708 5705 5701 5698 5695 5691 5688 5684 5680 5676 5672 5668 5663 5659 5654 5649 5643 5637 5632 5625 5618 5611 5604 5596 5587 5578 5568 5558
5706 5707 5709 5714 5715 5715 5714 5715 5715 5713 5711 5709 5708 5706 5704 5700 5697 5694 5691 5687 5683 5680 5676 5673 5669 5665 5660 5655 5651 5646 5641 5635 5629 5623 5617 5610 5603 5595 5587 5578 5570 5560 5549 5538
5698 5699 5701 5706 5706 5706 5706 5706 5707 5704 5702 5700 5698 5696 5694 5690 5686 5683 5679 5676 5672 5668 5665 5661 5656 5652 5648 5643 5638 5633 5628 5622 5616 5609 5602 5594 5587 5578 5569 5560 5551 5541 5531 5519
5690 5690 5692 5696 5697 5697 5697 5697 5695 5693 5691 5690 5687 5685 5682 5678 5675 5671 5668 5664 5660 5656 5652 5648 5644 5640 5635 5630 5625 5620 5614 5608 5601 5594 5586 5578 5570 5561 5551 5542 5532 5522 5512 5501
5682 5682 5686 5688 5687 5687 5686 5685 5683 5682 5680 5678 5676 5674 5670 5667 5663 5660 5656 5652 5648 5644 5640 5636 5631 5627 5622 5617 5612 5606 5600 5594 5587 5579 5570 5562 5553 5543 5533 5522 5512 5501 5490 5481
5675 5677 5677 5677 5677 5676 5675 5674 5673 5671 5670 5668 5665 5662 5659 5656 5652 5648 5645 5641 5636 5632 5628 5624 5619 5614 5609 5604 5598 5592 5586 5578 5571 5563 5554 5544 5534 5524 5514 5502 5491 5480 5469 5459
5666 5667 5667 5667 5666 5665 5664 5664 5662 5661 5659 5657 5654 5651 5648 5644 5641 5637 5633 5629 5625 5620 5616 5611 5606 5601 5595 5589 5583 5577 5570 5563 5554 5546 5537 5528 5517 5505 5494 5482 5470 5459 5448 5437
5657 5658 5657 5657 5656 5655 5654 5653 5651 5649 5647 5645 5642 5639 5636 5633 5629 5625 5621 5617 5613 5608 5604 5598 5593 5587 5581 5575 5568 5562 5554 5546 5538 5528 5519 5510 5499 5487 5475 5463 5448 5437 5427 5416
5648 5649 5648 5648 5647 5645 5644 5642 5640 5638 5636 5633 5630 5627 5624 5621 5617 5613 5609 5605 5600 5596 5591 5585 5580 5574 5567 5560 5553 5546 5538 5530 5520 5510 5500 5490 5480 5471 5459 5445 5433 5419 5406 5396
5638 5638 5637 5636 5636 5635 5633 5632 5630 5627 5625 5622 5619 5616 5612 5609 5605 5601 5597 5592 5588 5583 5578 5572 5566 5560 5552 5545 5537 5529 5521 5512 5502 5492 5481 5470 5459 5448 5440 5432 5418 5404 5391 5381
5628 5627 5627 5626 5625 5624 5622 5621 5619 5616 5614 5611 5608 5604 5601 5597 5593 5589 5584 5580 5575 5570 5564 5558 5552 5545 5537 5529 5521 5512 5503 5493 5482 5472 5461 5450 5438 5427 5416 5407 5401 5392 5380 5368
5618 5617 5616 5616 5615 5613 5612 5610 5608 5605 5602 5599 5596 5592 5589 5585 5581 5576 5572 5567 5562 5557 5550 5544 5537 5529 5521 5513 5504 5495 5485 5474 5463 5452 5441 5429 5418 5408 5397 5388 5379 5372 5365 5357
5607 5607 5606 5605 5604 5603 5601 5599 5596 5594 5591 5588 5584 5581 5577 5573 5569 5564 5559 5554 5549 5543 5536 5529 5522 5513 5505 5495 5486 5477 5466 5455 5443 5432 5421 5410 5399 5388 5379 5371 5363 5356 5350 5344
5597 5596 5596 5595 5593 5592 5590 5587 5585 5582 5579 5576 5573 5569 5565 5561 5557 5552 5547 5541 5535 5529 5521 5513 5505 5497 5487 5477 5467 5457 5447 5436 5424 5412 5400 5390 5380 5371 5362 5355 5348 5343 5338 5333
5587 5586 5585 5584 5582 5581 5579 5576 5574 5571 5568 5565 5562 5558 5554 5549 5545 5540 5534 5528 5521 5514 5505 5496 5488 5479 5468 5457 5446 5436 5426 5415 5404 5393 5382 5372 5363 5355 5347 5341 5335 5330 5327 5323
5577 5576 5575 5573 5572 5570 5568 5566 5563 5560 5557 5554 5550 5546 5541 5537 5531 5526 5520 5513 5505 5498 5490 5480 5470 5460 5449 5438 5426 5416 5405 5395 5385 5375 5365 5356 5348 5341 5334 5329 5324 5320 5317 5313
5567 5566 5565 5563 5561 5560 5557 5555 5552 5549 5545 5542 5538 5534 5529 5523 5517 5511 5505 5498 5488 5478 5471 5462 5451 5440 5429 5418 5407 5397 5387 5376 5367 5358 5350 5342 5335 5329 5323 5318 5314 5311 5307 5304
5557 5556 5555 5553 5551 5549 5546 5544 5541 5537 5534 5530 5525 5520 5515 5509 5503 5495 5488 5481 5472 5460 5451 5441 5430 5419 5408 5398 5389 5379 5369 5360 5351 5343 5336 5329 5323 5318 5313 5309 5305 5302 5299 5295
5547 5546 5544 5543 5541 5538 5535 5532 5529 5525 5521 5516 5511 5506 5500 5494 5487 5479 5471 5460 5452 5441 5431 5421 5409 5398 5388 5379 5370 5361 5353 5345 5337 5330 5324 5318 5313 5308 5304 5300 5297 5294 5290 5287
5537 5536 5534 5532 5530 5527 5524 5520 5517 5513 5508 5503 5497 5490 5484 5477 5468 5460 5453 5443 5430 5420 5410 5400 5389 5379 5369 5360 5353 5345 5338 5331 5324 5318 5312 5307 5303 5299 5295 5292 5289 5286 5283 5279
5527 5525 5523 5521 5518 5515 5512 5508 5504 5499 5494 5488 5481 5473 5465 5458 5451 5440 5429 5420 5410 5399 5389 5380 5370 5360 5352 5344 5337 5331 5324 5318 5312 5307 5302 5298 5294 5290 5287 5284 5281 5278 5275 5272
5516 5514 5512 5509 5506 5503 5499 5495 5490 5484 5478 5472 5464 5455 5446 5437 5428 5420 5410 5399 5389 5379 5370 5361 5352 5344 5337 5330 5324 5317 5311 5306 5301 5296 5292 5288 5285 5282 5279 5276 5274 5271 5269 5266
5504 5502 5499 5496 5493 5489 5485 5480 5475 5468 5461 5455 5447 5437 5427 5417 5407 5397 5388 5379 5370 5360 5352 5345 5337 5330 5323 5316 5310 5304 5299 5294 5290 5286 5282 5279 5277 5274 5272 5269 5267 5265 5262 5260
5492 5489 5486 5483 5478 5474 5469 5463 5457 5450 5442 5434 5427 5418 5407 5398 5388 5378 5369 5360 5352 5344 5337 5329 5323 5316 5309 5303 5298 5292 5287 5283 5279 5276 5274 5271 5269 5267 5265 5263 5261 5259 5256 5254